sat.trackr.live / text

‹ back to catalog

STARLINK-31567

NORAD 59199 · 2024-045X

PAYLOAD ACTIVE UNKNOWN

§ Identity

Operator
Country
US
Launch date
2024-03-10
Launch site
AFETR
Launch vehicle
Mass (kg)
RCS (m²)

Purposes: comms

External: N2YO · Heavens-Above · Gunter

§ Orbital elements

Epoch: 2026-05-24T23:58:22.876032Z

Period
94.27 min
Inclination
43.0018°
Eccentricity
0.0001444
Mean motion
15.27588034 rev/d
Perigee alt
482.0 km
Apogee alt
484.0 km
Semi-major
6,861.2 km
B*
1.1066e-4
RAAN
21.4357°
Arg perigee
272.6872°
Mean anomaly
87.3814°
Rev number
12,483

§ Raw data

STARLINK-315671 59199U 24045X   26144.99887588  .00002785  00000+0  11066-3 0  99952 59199  43.0018  21.4357 0001444 272.6872  87.3814 15.27588034124832

JSON: /api/v1/satellites/59199 · /tle

For live sub-satellite position, see the globe view (requires WebGL).

§ Visibility from observer

Set your observer location to see the next 7 days of passes ≥ 10°. The values pass through the URL so the page stays shareable.

No JS? Fill the form by hand. The geolocation button needs JavaScript.